Weather History for KAEX - January, 1998

Change the Weather History Date:

Friday, January 16, 1998

  Actual Average Record
Temperature  
Mean Temperature 48 °F 49 °F  
Max Temperature 64 °F 59 °F 79 °F (1935)
Min Temperature 32 °F 38 °F 18 °F (1972)
Degree Days  
Heating Degree Days 17 16  
Month to date heating degree days 256  
Since 1 July heating degree days 1045  
Moisture  
Dew Point 38 °F    
Average Humidity 75    
Maximum Humidity 100    
Minimum Humidity 42    
Precipitation  
Precipitation 0.00 in 0.15 in 1.83 in (2001)
Month to date precipitation 2.42  
Year to date precipitation 2.42  
Snow  
Snow 0.00 in - T in (1957)
Month to date snowfall  
Since 1 July snowfall  
Snow Depth -    
Sea Level Pressure  
Sea Level Pressure 29.96 in    
Wind  
Wind Speed 7 mph (South)    
Max Wind Speed 12 mph    
Max Gust Speed 17 mph    
Visibility 10 miles    
Events      
T = Trace of Precipitation, MM = Missing Value Source: NWS Daily Summary

Daily Weather History Graph

Daily Weather History Graph

Search for Another Location

Airport or City:

Trip Planner

Search our weather history database for the weather conditions in past years. The results will help you decide how hot, cold, wet, or windy it might be!

Date:

Astronomy

Jan. 16, 1998 Rise Set
Actual Time 7:09 AM CST 5:30 PM CST
Civil Twilight 6:43 AM CST 5:57 PM CST
Nautical Twilight 6:13 AM CST 6:26 PM CST
Astronomical Twilight 5:44 AM CST 6:55 PM CST
Moon 9:23 PM CST (1/16) 9:34 AM CST (1/16)
Length of Visible Light 11h 13m
Length of Day
10h 21m
Waning Gibbous, 85% of the Moon is Illuminated
Jan 16
Waning Gibbous
Jan 20
Last Quarter
Jan 28
New
Feb 3
First Quarter
Feb 11
Full

Hourly Weather History & Observations

Time (CST) Temp. Windchill Dew Point Humidity Pressure Visibility Wind Dir Wind Speed Gust Speed Precip Events Conditions
12:53 AM 33.8 °F 29.6 °F 33.8 °F 100% 29.93 in 10.0 mi East 4.6 mph - N/A   Clear
1:55 AM 35.6 °F 28.6 °F 35.6 °F 100% 29.93 in 10.0 mi WSW 9.2 mph - N/A   Clear
2:42 AM 35.6 °F 28.6 °F 33.8 °F 93% 29.93 in 10.0 mi WSW 9.2 mph - N/A   Clear
3:45 AM 35.6 °F 31.7 °F 33.8 °F 93% 29.93 in 10.0 mi WNW 4.6 mph - N/A   Clear
4:53 AM 33.8 °F 29.6 °F 33.8 °F 100% 29.95 in 10.0 mi SW 4.6 mph - N/A   Clear
5:50 AM 32.0 °F 27.5 °F 30.2 °F 93% 29.95 in 10.0 mi East 4.6 mph - N/A   Clear
6:57 AM 32.0 °F 27.5 °F 32.0 °F 100% 29.97 in 10.0 mi SE 4.6 mph - N/A   Clear
7:50 AM 32.0 °F 27.5 °F 32.0 °F 100% 30.00 in 10.0 mi South 4.6 mph - N/A   Clear
8:45 AM 39.2 °F 35.0 °F 37.4 °F 93% 30.02 in 10.0 mi South 5.8 mph - N/A   Clear
9:45 AM 44.6 °F 42.2 °F 39.2 °F 81% 30.02 in 10.0 mi SSE 4.6 mph - N/A   Clear
10:50 AM 50.0 °F - 39.2 °F 66% 30.02 in 10.0 mi Calm Calm - N/A   Clear
11:45 AM 53.6 °F - 41.0 °F 62% 30.01 in 10.0 mi South 6.9 mph - N/A   Clear
12:47 PM 57.2 °F - 41.0 °F 55% 29.97 in 10.0 mi South 6.9 mph - N/A   Clear
1:50 PM 60.8 °F - 39.2 °F 45% 29.97 in 10.0 mi South 9.2 mph - N/A   Clear
2:47 PM 62.6 °F - 41.0 °F 45% 29.92 in 10.0 mi North - - N/A   Clear
3:47 PM 64.4 °F - 41.0 °F 42% 29.92 in 10.0 mi South 11.5 mph 17.3 mph N/A   Clear
4:47 PM 60.8 °F - 39.2 °F 45% 29.91 in 10.0 mi South 11.5 mph - N/A   Clear
5:47 PM 57.2 °F - 41.0 °F 55% 29.91 in 10.0 mi South 11.5 mph - N/A   Clear
6:45 PM 55.4 °F - 42.8 °F 63% 29.94 in 10.0 mi South 11.5 mph - N/A   Clear
7:45 PM 53.6 °F - 41.0 °F 62% 29.96 in 10.0 mi South 6.9 mph - N/A   Clear
8:45 PM 53.6 °F - 41.0 °F 62% 29.97 in 10.0 mi South 5.8 mph - N/A   Clear
9:47 PM 51.8 °F - 44.6 °F 76% 30.00 in 10.0 mi South 6.9 mph - N/A   Clear
10:47 PM 44.6 °F 40.7 °F 42.8 °F 93% 30.00 in 10.0 mi SSW 6.9 mph - N/A   Clear
11:45 PM 53.6 °F - 46.4 °F 77% 30.01 in 10.0 mi SSW 11.5 mph - N/A   Clear